This is the latest recevied weather packets stored in our database for station/object DB0WUN-13. If no packets are shown the sender has not sent any weather packets the latest 1 day(s).
| Time | Temp. | Humidity | Pressure | Rain* | Wind** | Luminosity | Snow |
|---|---|---|---|---|---|---|---|
| 1778004226 | 12.22° C | 87% | 1007.8 hPa | 7.62 mm | 3.58 m/s, 268° | 0 W/m² | - |
| 1778004164 | 12.22° C | 87% | 1007.9 hPa | 7.37 mm | 3.58 m/s, 228° | 0 W/m² | - |
| 1778004106 | 12.22° C | 87% | 1007.9 hPa | 7.11 mm | 3.58 m/s, 265° | 0 W/m² | - |
| 1778004042 | 12.22° C | 86% | 1007.8 hPa | 7.11 mm | 3.58 m/s, 246° | 0 W/m² | - |
| 1778003984 | 12.22° C | 86% | 1007.7 hPa | 7.11 mm | 3.58 m/s, 262° | 0 W/m² | - |
| 1778003922 | 12.22° C | 86% | 1007.9 hPa | 6.86 mm | 3.58 m/s, 238° | 0 W/m² | - |
| 1778003861 | 12.22° C | 86% | 1007.8 hPa | 6.6 mm | 4.02 m/s, 294° | 0 W/m² | - |
| 1778003803 | 12.22° C | 86% | 1007.7 hPa | 6.35 mm | 4.02 m/s, 274° | 0 W/m² | - |
| 1778003735 | 12.22° C | 86% | 1007.7 hPa | 6.35 mm | 4.02 m/s, 278° | 0 W/m² | - |
| 1778003675 | 12.22° C | 85% | 1007.6 hPa | 6.1 mm | 4.02 m/s, 295° | 0 W/m² | - |
| 1778003615 | 12.22° C | 85% | 1007.7 hPa | 6.1 mm | 4.02 m/s, 280° | 0 W/m² | - |
| 1778003556 | 12.22° C | 85% | 1007.7 hPa | 5.84 mm | 4.02 m/s, 269° | 0 W/m² | - |
| 1778003496 | 12.78° C | 84% | 1007.6 hPa | 5.59 mm | 4.02 m/s, 240° | 0 W/m² | - |
| 1778003435 | 12.78° C | 84% | 1007.6 hPa | 5.33 mm | 4.02 m/s, 252° | 0 W/m² | - |
| 1778003374 | 12.78° C | 83% | 1007.5 hPa | 5.08 mm | 4.02 m/s, 288° | 0 W/m² | - |
| 1778003313 | 12.78° C | 83% | 1007.6 hPa | 4.57 mm | 4.02 m/s, 295° | 0 W/m² | - |
| 1778003260 | 12.78° C | 83% | 1007.6 hPa | 4.32 mm | 4.02 m/s, 284° | 0 W/m² | - |
| 1778003207 | 12.78° C | 83% | 1007.6 hPa | 4.06 mm | 3.58 m/s, 274° | 0 W/m² | - |
| 1778003172 | 13.33° C | 82% | 1007.6 hPa | 3.81 mm | 3.58 m/s, 259° | 0 W/m² | - |
| 1778003127 | 13.33° C | 81% | 1007.6 hPa | 3.3 mm | 3.58 m/s, 293° | 0 W/m² | - |
| 1778003086 | 13.33° C | 81% | 1007.7 hPa | 3.05 mm | 4.02 m/s, 231° | 0 W/m² | - |
| 1778003043 | 13.33° C | 81% | 1007.6 hPa | 2.29 mm | 3.58 m/s, 290° | 0 W/m² | - |
| 1778003000 | 13.89° C | 80% | 1007.8 hPa | 2.03 mm | 3.58 m/s, 255° | 0 W/m² | - |
| 1778002967 | 13.89° C | 80% | 1007.8 hPa | 1.52 mm | 3.58 m/s, 307° | 0 W/m² | - |
| 1778002918 | 13.89° C | 78% | 1007.8 hPa | 1.02 mm | 3.58 m/s, 253° | 0 W/m² | - |
* Rain latest hour (hover to see other rain measurements)
** Current wind speed in m/s (hover to see current wind gust speed)